CYQU

Grande Prairie

Airport
ICAO code
CYQU
Summary
ICAO Region
NAM
ICAO Territory
Location

Grande Prairie, Alberta,

Coordinates
55° 10' 47" N , 118° 53' 6" W
KCC
Metar
Observation
CYQU 062300Z 08004KT 25SM BKN075 M26/M30 A2979 RMK AC7 SLP171
Station
Grande Prairie, Alta.
Date/Time
2022-12-06 23:00:00
Wind direction
80°
Wind speed
04 kts
Lowest cloud amount
broken clouds
Temperature
-26°C
Dew point
-30°C
Humidity
68%
Weather condition
n/a

Description

Grande Prairie Airport is located 3 nm west northwest of Grande Prairie, Alberta, Canada.

Climatology

Subarctic climate (Köppen climate classification Dfc) - long, usually very cold winters, and short, cool to mild summers.

Runways

Designator Length Width Surface Rops
7/25 1890 61 ASP Yes/Yes
12/30 1981 61 ASP Yes/Yes

Airport map

Aerial View

SKYbrary Partners:

Safety knowledge contributed by: